Location: Betra
(48.4113°N, 8.6634°E)
Time: 19:08:44
(UTC+00:00)

DELTA 2 R/B (1) - Pass Details

Date: 23 May 2024
Orbit: 788 x 801 km, 39.6° (Epoch: 16 June)

Event Time Altitude Azimuth Distance (km) Brightness Sun altitude
Exits shadow 00:26:20 31° 161° (SSE) 1,348 4.3 -19.5°
Drops below altitude 10° 00:30:37 10° 112° (ESE) 2,351 6.0 -19.3°
Sets 00:33:18 0° 103° (ESE) 3,278 6.8 -19.1°
